Location: Namasale
(1.5000°N, 32.6167°E)
Time: 18:21:16
(UTC+00:00)

Courier 1B - Pass Details

Date: 22 April 2021
Orbit: 962 x 1209 km, 28.3° (Epoch: 09 May)

Event Time Altitude Azimuth Distance (km) Brightness Sun altitude
Rises 13:51:13 0° 331° (NNW) 3,624 11.1 28.8°
Reaches altitude 10° 13:56:58 10° 11° (N) 2,691 9.9 27.4°
Maximum altitude 13:57:56 10° 20° (NNE) 2,671 9.8 27.2°
Drops below altitude 10° 13:58:55 10° 29° (NNE) 2,701 9.8 26.9°
Sets 14:04:45 0° 68° (ENE) 3,699 10.1 25.5°
